Location: Buchberg
(46.9333°N, 15.8500°E)
Time: 09:50:15
(UTC+00:00)

Gbstr 26 Del rocket - Pass Details

Date: 14 July 2020
Orbit: 492 x 1264 km, 51.8° (Epoch: 08 August)

Event Time Altitude Azimuth Distance (km) Brightness Sun altitude
Rises 01:39:15 0° 295° (WNW) 2,697 6.2 -12.9°
Reaches altitude 10° 01:41:19 10° 293° (WNW) 1,867 5.4 -12.7°
Maximum altitude 01:45:30 69° 210° (SSW) 684 3.0 -12.2°
Drops below altitude 10° 01:50:35 10° 128° (SE) 2,253 6.0 -11.7°
Sets 01:53:16 0° 126° (SE) 3,311 6.8 -11.4°
